Precipitable_Water
1.16 1.15 1.11 1.10 1.10 1.14 1.19 1.22 1.25 1.24 1.27 1.33 1.31 1.32 1.31 1.34 1.41 1.38 1.36 1.37 1.36 1.32 1.33 1.34 1.34 1.33 1.27 1.23 1.23 1.25 1.25 1.22 1.20 1.20 1.14 1.08 1.07 1.09 1.06 1.11 1.15 1.13
1.18 1.17 1.16 1.14 1.13 1.18 1.23 1.26 1.26 1.24 1.26 1.30 1.32 1.34 1.35 1.38 1.40 1.38 1.37 1.38 1.40 1.35 1.35 1.34 1.33 1.31 1.28 1.23 1.25 1.24 1.22 1.23 1.18 1.22 1.14 1.07 1.07 1.10 1.09 1.12 1.15 1.16
1.21 1.19 1.17 1.13 1.10 1.14 1.22 1.28 1.28 1.28 1.27 1.28 1.34 1.37 1.36 1.37 1.38 1.41 1.41 1.42 1.42 1.38 1.33 1.30 1.29 1.29 1.27 1.24 1.25 1.23 1.18 1.16 1.15 1.18 1.15 1.08 1.06 1.05 1.10 1.13 1.13 1.14
1.24 1.20 1.18 1.17 1.16 1.17 1.24 1.27 1.28 1.29 1.30 1.29 1.33 1.38 1.39 1.38 1.38 1.39 1.40 1.43 1.42 1.38 1.32 1.29 1.25 1.26 1.24 1.23 1.23 1.19 1.15 1.13 1.15 1.17 1.12 1.10 1.07 1.04 1.06 1.11 1.12 1.11
1.24 1.22 1.22 1.22 1.23 1.26 1.29 1.27 1.25 1.26 1.25 1.26 1.32 1.39 1.42 1.40 1.39 1.39 1.38 1.40 1.43 1.39 1.33 1.26 1.26 1.22 1.20 1.18 1.19 1.15 1.12 1.10 1.16 1.18 1.12 1.07 1.07 1.07 1.05 1.08 1.07 1.05
1.30 1.28 1.26 1.24 1.25 1.27 1.28 1.28 1.28 1.27 1.25 1.24 1.29 1.37 1.40 1.41 1.38 1.36 1.34 1.35 1.39 1.37 1.29 1.25 1.25 1.22 1.18 1.16 1.16 1.12 1.09 1.07 1.12 1.16 1.11 1.07 1.06 1.10 1.09 1.09 1.07 1.04
1.25 1.28 1.28 1.31 1.30 1.31 1.29 1.30 1.31 1.29 1.25 1.25 1.31 1.34 1.38 1.38 1.38 1.36 1.34 1.33 1.34 1.34 1.28 1.23 1.23 1.22 1.18 1.15 1.12 1.09 1.11 1.10 1.11 1.13 1.10 1.08 1.08 1.08 1.11 1.10 1.07 1.05
1.24 1.28 1.30 1.32 1.28 1.30 1.30 1.31 1.31 1.28 1.27 1.28 1.27 1.32 1.37 1.36 1.37 1.38 1.36 1.34 1.33 1.33 1.31 1.24 1.23 1.26 1.22 1.17 1.13 1.09 1.07 1.10 1.10 1.09 1.08 1.07 1.07 1.04 1.08 1.11 1.11 1.07
1.25 1.25 1.29 1.31 1.29 1.27 1.29 1.30 1.29 1.29 1.31 1.26 1.25 1.30 1.37 1.38 1.37 1.37 1.36 1.36 1.34 1.34 1.32 1.26 1.24 1.27 1.29 1.24 1.19 1.12 1.06 1.06 1.09 1.09 1.06 1.04 1.04 1.04 1.05 1.10 1.10 1.10
1.23 1.23 1.27 1.29 1.27 1.27 1.27 1.28 1.28 1.30 1.31 1.28 1.28 1.32 1.33 1.38 1.38 1.34 1.34 1.35 1.35 1.35 1.33 1.29 1.28 1.27 1.29 1.29 1.23 1.16 1.10 1.06 1.07 1.07 1.06 1.04 1.03 1.05 1.08 1.10 1.12 1.14
1.28 1.23 1.22 1.24 1.24 1.26 1.25 1.27 1.28 1.29 1.31 1.29 1.31 1.32 1.34 1.36 1.34 1.32 1.31 1.32 1.30 1.30 1.29 1.28 1.27 1.28 1.30 1.31 1.30 1.25 1.16 1.09 1.07 1.05 1.03 1.04 1.05 1.07 1.12 1.14 1.15 1.15
1.33 1.24 1.19 1.19 1.21 1.23 1.24 1.25 1.27 1.28 1.29 1.31 1.32 1.31 1.35 1.35 1.30 1.28 1.28 1.29 1.31 1.31 1.29 1.28 1.30 1.32 1.32 1.32 1.32 1.30 1.23 1.14 1.10 1.09 1.07 1.07 1.09 1.11 1.14 1.16 1.15 1.16
1.36 1.26 1.18 1.17 1.19 1.21 1.24 1.26 1.26 1.27 1.29 1.29 1.33 1.33 1.32 1.30 1.30 1.28 1.28 1.29 1.31 1.32 1.30 1.29 1.30 1.32 1.33 1.33 1.32 1.30 1.27 1.22 1.16 1.14 1.13 1.13 1.13 1.13 1.14 1.15 1.17 1.19
1.37 1.31 1.23 1.18 1.19 1.22 1.24 1.25 1.25 1.26 1.28 1.32 1.36 1.33 1.31 1.29 1.27 1.26 1.28 1.29 1.29 1.29 1.31 1.33 1.33 1.33 1.33 1.33 1.33 1.32 1.31 1.31 1.29 1.24 1.20 1.18 1.18 1.19 1.18 1.17 1.17 1.20
1.40 1.38 1.31 1.23 1.20 1.21 1.22 1.22 1.23 1.25 1.29 1.31 1.34 1.34 1.33 1.32 1.32 1.32 1.30 1.29 1.30 1.30 1.30 1.33 1.32 1.31 1.32 1.33 1.33 1.34 1.38 1.38 1.39 1.37 1.33 1.27 1.22 1.22 1.21 1.20 1.24 1.25
1.41 1.39 1.33 1.26 1.22 1.18 1.17 1.19 1.21 1.23 1.26 1.28 1.30 1.33 1.34 1.35 1.35 1.35 1.34 1.30 1.27 1.28 1.30 1.31 1.31 1.32 1.34 1.36 1.38 1.40 1.43 1.46 1.48 1.48 1.46 1.39 1.31 1.25 1.20 1.22 1.28 1.26
1.40 1.37 1.36 1.28 1.22 1.19 1.18 1.18 1.19 1.21 1.23 1.26 1.29 1.33 1.34 1.36 1.37 1.34 1.32 1.31 1.29 1.29 1.28 1.29 1.30 1.33 1.35 1.38 1.43 1.48 1.52 1.54 1.54 1.54 1.53 1.49 1.40 1.25 1.15 1.19 1.24 1.25
1.37 1.36 1.34 1.30 1.26 1.20 1.18 1.18 1.19 1.20 1.21 1.24 1.27 1.30 1.34 1.38 1.36 1.34 1.33 1.32 1.32 1.33 1.32 1.32 1.33 1.37 1.40 1.44 1.49 1.54 1.58 1.61 1.63 1.60 1.56 1.52 1.46 1.36 1.24 1.22 1.26 1.25
1.38 1.35 1.31 1.30 1.27 1.23 1.22 1.22 1.20 1.20 1.22 1.24 1.25 1.29 1.33 1.33 1.33 1.34 1.33 1.35 1.37 1.35 1.35 1.39 1.40 1.43 1.46 1.49 1.53 1.58 1.63 1.68 1.68 1.65 1.58 1.52 1.48 1.42 1.31 1.25 1.25 1.21
1.41 1.36 1.30 1.28 1.29 1.29 1.27 1.24 1.21 1.19 1.23 1.28 1.31 1.32 1.31 1.31 1.34 1.35 1.36 1.38 1.39 1.38 1.39 1.43 1.44 1.47 1.49 1.52 1.57 1.63 1.69 1.72 1.71 1.66 1.59 1.54 1.50 1.47 1.41 1.31 1.25 1.20
1.43 1.39 1.32 1.29 1.31 1.31 1.29 1.25 1.23 1.24 1.27 1.30 1.32 1.32 1.30 1.31 1.34 1.35 1.38 1.42 1.44 1.44 1.44 1.45 1.45 1.49 1.52 1.57 1.63 1.68 1.73 1.75 1.72 1.66 1.59 1.53 1.51 1.50 1.45 1.38 1.32 1.27
1.42 1.39 1.35 1.32 1.30 1.30 1.28 1.26 1.27 1.28 1.27 1.33 1.36 1.38 1.40 1.41 1.44 1.45 1.43 1.44 1.47 1.48 1.46 1.44 1.45 1.53 1.57 1.62 1.69 1.74 1.76 1.75 1.71 1.64 1.57 1.51 1.48 1.49 1.48 1.44 1.39 1.32
1.40 1.39 1.36 1.33 1.30 1.27 1.25 1.26 1.28 1.32 1.36 1.42 1.39 1.40 1.41 1.43 1.45 1.45 1.49 1.51 1.52 1.51 1.47 1.42 1.50 1.56 1.60 1.66 1.74 1.79 1.78 1.74 1.70 1.64 1.56 1.48 1.45 1.47 1.48 1.46 1.43 1.38
1.39 1.38 1.34 1.31 1.29 1.23 1.22 1.27 1.35 1.40 1.42 1.47 1.43 1.42 1.43 1.46 1.48 1.50 1.56 1.58 1.57 1.55 1.52 1.49 1.54 1.59 1.63 1.70 1.76 1.80 1.79 1.74 1.70 1.62 1.54 1.47 1.44 1.46 1.47 1.46 1.45 1.42
1.40 1.38 1.35 1.32 1.28 1.26 1.29 1.33 1.38 1.41 1.48 1.56 1.56 1.55 1.52 1.54 1.56 1.55 1.57 1.63 1.67 1.64 1.60 1.57 1.58 1.61 1.66 1.71 1.75 1.77 1.77 1.75 1.70 1.61 1.50 1.45 1.44 1.45 1.48 1.47 1.46 1.45
1.45 1.42 1.39 1.35 1.32 1.34 1.39 1.42 1.48 1.53 1.56 1.57 1.59 1.61 1.60 1.62 1.61 1.61 1.61 1.66 1.71 1.63 1.59 1.63 1.62 1.64 1.68 1.71 1.72 1.73 1.73 1.73 1.69 1.57 1.46 1.42 1.42 1.42 1.39 1.41 1.41 1.40
Wind_Speed
23 22 21 20 19 19 18 17 16 16 15 15 15 14 13 13 12 11 10 9 9 8 8 7 7 7 7 7 7 7 7 7 8 8 8 9 9 9 8 8 8 9
24 23 22 21 20 20 19 18 17 17 16 16 15 15 14 14 13 12 11 10 9 9 9 8 8 8 8 8 7 8 8 8 9 9 9 9 10 10 9 9 9 9
25 24 23 23 22 21 20 19 19 18 17 17 16 16 15 14 13 12 12 11 10 9 9 9 9 8 8 8 8 8 9 9 9 10 10 10 11 11 10 10 11 11
26 26 25 24 23 22 21 20 20 19 18 17 17 16 15 15 14 13 12 11 11 10 10 10 9 9 9 9 9 9 10 10 11 11 11 12 12 12 12 12 13 13
27 26 26 25 24 23 22 21 21 20 19 19 18 17 16 15 14 14 13 12 12 11 11 10 10 10 10 10 10 10 11 12 12 12 13 13 13 13 13 14 14 14
27 27 26 26 25 24 23 22 22 21 20 20 19 18 17 16 15 15 14 13 13 12 12 11 11 11 11 11 11 11 12 12 13 13 14 14 14 14 15 15 15 15
27 27 27 26 26 25 24 23 22 22 22 21 20 19 18 17 16 15 15 14 14 13 13 12 12 12 12 12 12 12 13 13 14 14 15 15 15 15 16 16 16 15
27 27 27 26 26 26 25 24 23 23 22 22 21 20 19 18 17 16 15 15 14 14 14 13 13 13 13 12 12 13 14 14 14 15 15 16 16 16 17 17 16 16
26 26 26 26 26 26 26 25 24 24 23 22 22 21 20 19 18 17 16 15 15 15 14 14 14 14 14 13 14 14 15 16 16 16 16 17 17 18 18 18 17 17
25 26 26 27 27 27 26 26 25 24 23 23 22 21 21 20 19 18 17 16 16 15 15 15 15 15 15 15 15 16 16 17 17 18 18 18 18 19 19 19 18 18
25 25 26 27 27 27 27 27 26 25 24 23 23 22 21 20 20 19 18 17 17 17 16 16 16 16 16 17 17 17 18 18 18 19 19 19 20 20 20 20 19 19
26 26 26 27 27 27 27 27 27 26 25 24 23 23 22 21 20 19 19 18 18 18 18 18 17 17 17 18 18 19 19 19 19 20 20 20 21 21 21 20 20 20
26 26 26 26 27 27 27 27 27 27 26 25 24 23 23 22 21 20 20 19 19 19 19 19 18 18 18 18 19 19 19 20 20 20 21 21 21 22 21 21 21 22
27 27 26 26 27 27 28 28 28 27 27 26 25 24 24 23 22 21 21 20 20 20 20 19 19 18 18 19 19 19 20 20 20 21 22 22 22 22 22 22 23 23
28 27 27 27 27 28 28 28 28 28 27 26 26 25 24 23 23 22 22 21 21 21 21 20 19 19 19 19 19 19 20 21 21 22 22 23 23 23 23 23 23 24
28 28 28 28 28 28 28 29 29 29 28 27 27 26 25 24 24 23 23 22 22 22 21 20 19 19 20 20 20 20 21 21 22 22 23 23 23 23 23 23 24 24
29 29 29 29 29 29 29 29 29 29 29 28 27 27 26 25 25 24 24 23 23 22 22 21 21 21 20 20 21 21 21 22 22 23 23 23 23 24 24 24 24 24
29 29 30 30 30 30 30 30 30 30 30 29 28 27 27 26 25 25 24 24 23 23 23 22 22 21 21 21 22 22 23 23 23 23 24 24 24 24 24 24 24 24
30 30 30 31 31 31 30 31 31 31 30 30 29 28 27 27 26 25 25 24 24 23 23 22 22 21 22 22 23 23 24 24 24 24 24 24 24 24 24 24 24 25
31 31 31 31 32 31 31 31 32 32 31 30 29 29 28 27 27 26 25 25 24 23 23 22 22 22 22 22 23 23 24 23 24 24 24 24 24 24 24 24 25 25
31 31 32 32 32 32 32 32 32 32 31 31 30 29 29 28 27 26 25 25 24 24 23 23 22 22 22 22 22 23 23 23 23 23 23 24 24 25 25 25 25 26
32 32 32 33 33 33 33 33 33 32 32 31 30 29 29 28 27 26 26 25 25 24 24 23 22 22 22 22 22 23 23 23 23 23 23 24 25 25 26 26 25 26
33 33 33 33 34 34 34 33 33 32 32 31 30 30 29 28 27 27 26 26 25 24 24 24 23 22 22 22 22 23 23 23 24 24 24 25 25 26 26 26 25 25
34 34 34 34 34 34 34 34 33 32 32 31 31 30 29 29 28 27 26 26 25 25 25 24 23 23 23 22 23 23 23 24 24 24 25 25 26 26 26 26 25 25
35 35 35 35 34 34 34 34 33 32 32 31 31 30 30 29 28 27 27 26 26 25 25 24 23 23 23 23 22 22 23 24 24 25 25 26 26 26 26 25 25 25
36 35 35 35 35 34 34 33 33 32 32 32 31 30 29 29 28 28 27 26 25 25 24 24 23 23 24 23 23 23 23 24 25 25 26 26 26 25 25 25 25 25
Wind_Direction
224 223 222 222 223 223 222 222 222 221 222 223 223 223 223 225 225 226 230 234 237 241 246 252 258 264 270 276 281 286 293 300 307 313 313 313 314 315 312 313 319 326
225 224 224 224 223 223 223 223 223 223 224 225 225 225 224 225 226 227 231 235 238 242 247 253 258 263 268 273 278 284 290 296 301 306 307 307 310 310 306 306 310 315
225 225 224 224 224 223 224 224 225 225 226 226 225 224 223 225 226 228 232 236 239 243 248 255 259 262 267 272 277 282 289 293 297 301 304 304 306 305 303 302 304 307
225 225 225 225 225 224 225 224 224 225 225 225 224 223 223 224 226 228 232 235 239 243 249 255 259 261 265 270 276 282 288 292 295 297 300 301 301 301 300 300 302 303
225 225 225 226 225 225 225 224 224 223 223 224 223 223 222 223 226 228 232 235 238 244 250 255 259 261 262 267 275 282 287 290 292 294 296 298 298 298 298 298 299 299
226 226 226 226 225 225 225 224 223 223 223 224 223 223 223 225 227 230 232 235 238 243 249 254 259 261 262 266 273 280 285 288 290 292 294 295 296 296 296 296 296 296
226 226 226 226 225 225 225 224 223 223 224 224 224 224 225 226 229 231 233 236 239 243 248 254 258 260 262 267 273 279 284 287 288 289 291 292 293 293 293 293 293 293
226 226 226 225 224 224 224 223 223 224 224 224 224 224 226 228 230 232 234 236 239 243 248 254 258 260 262 268 274 278 281 284 285 286 288 290 290 291 291 292 292 291
224 224 224 223 223 222 222 222 223 223 224 224 224 225 227 229 231 232 234 237 240 244 248 253 257 260 264 269 274 278 280 282 283 284 285 287 289 289 290 290 290 289
223 223 222 222 222 222 222 222 223 223 224 224 224 226 228 230 232 234 235 237 240 244 248 252 256 261 265 269 274 278 280 282 283 283 284 286 288 289 289 288 287 288
224 223 222 221 222 222 222 222 223 223 223 224 225 226 228 231 233 235 236 238 241 245 249 253 257 261 265 269 273 278 280 281 283 284 285 286 288 288 288 287 286 287
224 224 223 222 222 222 222 222 223 223 224 225 226 227 229 231 233 235 237 239 242 247 250 254 258 261 266 270 274 277 279 281 283 285 287 288 288 288 286 284 284 284
224 224 224 224 224 223 223 223 223 223 224 225 226 228 229 231 233 235 237 240 244 248 251 254 257 261 266 270 273 277 279 282 284 286 287 288 289 288 285 283 282 282
224 225 225 225 225 225 224 224 224 224 225 226 227 228 229 231 233 235 238 242 245 248 252 255 257 262 266 270 273 277 279 281 284 286 287 287 287 287 285 282 281 280
224 225 226 226 225 225 225 225 225 225 226 226 227 229 230 232 234 236 239 243 246 248 252 255 259 263 267 270 274 277 279 281 284 286 287 286 285 285 284 282 281 281
225 226 226 226 226 226 226 225 225 226 226 227 228 229 231 233 234 236 239 243 245 248 252 256 260 264 267 270 274 277 279 281 285 287 288 287 285 284 283 283 282 281
227 227 226 226 226 226 226 226 226 226 226 227 228 229 231 233 234 236 239 243 246 249 252 256 261 264 267 270 274 276 279 282 285 287 289 288 286 284 284 283 282 281
229 228 227 226 226 226 227 226 226 226 226 227 228 230 231 233 234 237 240 243 246 249 252 257 261 264 266 269 273 276 278 281 285 287 289 289 287 285 284 284 283 283
230 229 228 227 227 227 227 226 226 226 226 227 228 230 232 233 235 238 241 244 247 250 253 257 261 263 266 269 273 275 277 280 284 286 288 289 287 286 285 284 285 286
231 230 229 228 227 227 226 226 226 226 226 227 228 229 232 234 236 238 242 245 248 251 254 258 260 263 267 270 272 275 277 279 283 286 288 289 287 286 285 284 284 286
231 230 229 228 227 227 226 226 226 226 226 226 228 230 232 234 236 239 243 246 249 252 255 257 260 265 269 271 273 275 276 279 283 286 288 289 288 287 286 285 284 285
231 230 229 228 227 226 226 226 226 226 226 226 228 230 232 235 237 240 243 247 250 252 254 256 261 266 270 272 274 276 277 280 283 286 287 288 288 288 287 286 285 285
230 230 230 229 227 226 226 226 226 226 226 227 228 231 233 235 238 241 244 247 250 252 254 257 263 268 270 272 275 275 278 281 282 284 286 287 287 288 288 287 286 286
230 230 230 229 228 227 226 225 225 225 227 228 230 232 235 237 239 242 245 248 251 252 254 257 264 268 270 272 275 276 279 282 283 283 285 286 287 288 288 288 286 285
230 230 230 229 228 227 226 225 225 226 227 229 231 234 236 239 241 243 246 249 251 253 254 258 264 269 271 273 275 277 280 284 284 283 284 286 287 287 288 288 287 286
230 230 229 228 228 226 226 225 225 226 228 230 233 235 238 240 242 244 246 250 252 253 255 259 264 268 271 273 275 277 281 284 285 283 283 285 286 287 286 287 287 287